,,Stat5,,Stat1,,Stat2,,Stat3,,Stat4,,Wind1,,Wind1,
time,status,PA1M_AVG,status,PR1M_SUM,status,RH1M_AVG,status,SR1M_AVG,status,TA1M_AVG,status,W1dAve1m,status,W1sAve1m,
2003-05-22, 00:00:00,VALID,919.745,VALID,0,VALID,99.1674,VALID,0.0339617,VALID,19.1032,VALID,118,VALID,0.884415,
2003-05-22, 00:01:00,VALID,919.745,VALID,0,VALID,99.1559,VALID,0.0339617,VALID,19.1352,VALID,127,VALID,0.904983,
2003-05-22, 00:02:00,VALID,919.738,VALID,0,VALID,99.0033,VALID,0.0169808,VALID,19.1549,VALID,136,VALID,0.826786,
2003-05-22, 00:03:00,VALID,919.729,VALID,0,VALID,98.9054,VALID,0.0339617,VALID,19.1449,VALID,140,VALID,0.736378,
2003-05-22, 00:04:00,VALID,919.707,VALID,0,VALID,98.4718,VALID,0.0679233,VALID,19.1099,VALID,146,VALID,0.878314,
2003-05-22, 00:05:00,VALID,919.728,VALID,0,VALID,97.9212,VALID,0.0679233,VALID,18.9804,VALID,150,VALID,1.1761,
2003-05-22, 00:06:00,VALID,919.727,VALID,0,VALID,97.8182,VALID,0.0509425,VALID,18.8936,VALID,144,VALID,1.03968,
2003-05-22, 00:07:00,VALID,919.724,VALID,0,VALID,98.042,VALID,0.0169808,VALID,18.8541,VALID,147,VALID,1.07175,
2003-05-22, 00:08:00,VALID,919.714,VALID,0,VALID,98.1488,VALID,0.0509425,VALID,18.8449,VALID,147,VALID,1.01067,
2003-05-22, 00:09:00,VALID,919.717,VALID,0,VALID,98.2874,VALID,0.0339617,VALID,18.832,VALID,145,VALID,0.591452,
2003-05-22, 00:10:00,VALID,919.729,VALID,0,VALID,98.1844,VALID,0.0169808,VALID,18.8057,VALID,135,VALID,0.53674,
2003-05-22, 00:11:00,VALID,919.716,VALID,0,VALID,98.1017,VALID,0.0339617,VALID,18.7383,VALID,113,VALID,0.625488,
2003-05-22, 00:12:00,VALID,919.73,VALID,0,VALID,98.3815,VALID,0.0339617,VALID,18.7319,VALID,112,VALID,0.521748,
2003-05-22, 00:13:00,VALID,919.741,VALID,0,VALID,98.6613,VALID,0.0679233,VALID,18.7381,VALID,97,VALID,0.838816,
2003-05-22, 00:14:00,VALID,919.734,VALID,0,VALID,99.0834,VALID,0.0509425,VALID,18.8059,VALID,57,VALID,0.516036,
2003-05-22, 00:15:00,VALID,919.736,VALID,0,VALID,99.1178,VALID,0.0169808,VALID,18.8424,VALID,99,VALID,0.708079,
2003-05-22, 00:16:00,VALID,919.729,VALID,0,VALID,99.2856,VALID,0.0339617,VALID,18.8675,VALID,93,VALID,0.84398,
2003-05-22, 00:17:00,VALID,919.718,VALID,0,VALID,99.2983,VALID,0.0169808,VALID,18.8835,VALID,81,VALID,0.772593,
2003-05-22, 00:18:00,VALID,919.696,VALID,0,VALID,99.3924,VALID,0.0169808,VALID,18.8932,VALID,88,VALID,1.14441,
2003-05-22, 00:19:00,VALID,919.657,VALID,0,VALID,99.4318,VALID,0.0169808,VALID,18.9192,VALID,109,VALID,1.05933,
2003-05-22, 00:20:00,VALID,919.616,VALID,0,VALID,99.3962,VALID,0.0339617,VALID,18.9093,VALID,127,VALID,1.13877,
2003-05-22, 00:21:00,VALID,919.595,VALID,0,VALID,99.3848,VALID,0.0339617,VALID,18.8876,VALID,132,VALID,1.14063,
2003-05-22, 00:22:00,VALID,919.566,VALID,0,VALID,99.4293,VALID,0.0339617,VALID,18.8613,VALID,117,VALID,0.940168,
2003-05-22, 00:23:00,VALID,919.558,VALID,0,VALID,99.4547,VALID,0.0169808,VALID,18.8514,VALID,123,VALID,0.730699,
2003-05-22, 00:24:00,VALID,919.549,VALID,0,VALID,99.4992,VALID,0.0339617,VALID,18.8484,VALID,114,VALID,1.15836,
2003-05-22, 00:25:00,VALID,919.544,VALID,0,VALID,99.4369,VALID,0,VALID,18.8094,VALID,109,VALID,1.05347,
2003-05-22, 00:26:00,VALID,919.544,VALID,0,VALID,99.4535,VALID,0.0679233,VALID,18.7771,VALID,109,VALID,1.04202,
2003-05-22, 00:27:00,VALID,919.526,VALID,0,VALID,99.4942,VALID,0.0169808,VALID,18.7579,VALID,114,VALID,0.981908,
2003-05-22, 00:28:00,VALID,919.528,VALID,0,VALID,99.5666,VALID,0.0169808,VALID,18.7319,VALID,118,VALID,0.519942,
2003-05-22, 00:29:00,VALID,919.51,VALID,0,VALID,99.5895,VALID,0.0169808,VALID,18.7252,VALID,128,VALID,0.693407,
2003-05-22, 00:30:00,VALID,919.505,VALID,0,VALID,99.5933,VALID,0.0169808,VALID,18.7254,VALID,121,VALID,0.848116,
2003-05-22, 00:31:00,VALID,919.497,VALID,0,VALID,99.6061,VALID,0.0169808,VALID,18.7125,VALID,125,VALID,0.531883,
2003-05-22, 00:32:00,VALID,919.481,VALID,0,VALID,99.6302,VALID,0.0509425,VALID,18.6995,VALID,117,VALID,0.857481,
2003-05-22, 00:33:00,VALID,919.466,VALID,0,VALID,99.6633,VALID,0,VALID,18.7058,VALID,120,VALID,0.75359,
2003-05-22, 00:34:00,VALID,919.459,VALID,0,VALID,99.6938,VALID,0.0679233,VALID,18.7286,VALID,112,VALID,0.75514,
2003-05-22, 00:35:00,VALID,919.433,VALID,0,VALID,99.7319,VALID,0.0339617,VALID,18.7443,VALID,110,VALID,1.04132,
2003-05-22, 00:36:00,VALID,919.431,VALID,0,VALID,99.7459,VALID,0,VALID,18.7545,VALID,109,VALID,0.902439,
2003-05-22, 00:37:00,VALID,919.426,VALID,0,VALID,99.7587,VALID,0.0679233,VALID,18.7607,VALID,121,VALID,0.960018,
2003-05-22, 00:38:00,VALID,919.41,VALID,0,VALID,99.7854,VALID,0,VALID,18.7806,VALID,133,VALID,1.12352,
2003-05-22, 00:39:00,VALID,919.399,VALID,0,VALID,99.8057,VALID,0.0169808,VALID,18.7902,VALID,129,VALID,1.00024,
2003-05-22, 00:40:00,VALID,919.367,VALID,0,VALID,99.8133,VALID,0.0169808,VALID,18.8029,VALID,102,VALID,0.86212,
2003-05-22, 00:41:00,VALID,919.348,VALID,0,VALID,99.7968,VALID,0.0339617,VALID,18.7835,VALID,94,VALID,1.02282,
2003-05-22, 00:42:00,VALID,919.345,VALID,0,VALID,99.7854,VALID,0.0339617,VALID,18.7674,VALID,90,VALID,1.07216,
2003-05-22, 00:43:00,VALID,919.331,VALID,0,VALID,99.7777,VALID,0.0339617,VALID,18.7418,VALID,84,VALID,1.07374,
2003-05-22, 00:44:00,VALID,919.321,VALID,0,VALID,99.7587,VALID,0.0679233,VALID,18.6896,VALID,95,VALID,1.12891,
2003-05-22, 00:45:00,VALID,919.302,VALID,0,VALID,99.7396,VALID,0.0339617,VALID,18.6705,VALID,111,VALID,1.28378,
2003-05-22, 00:46:00,VALID,919.294,VALID,0,VALID,99.7294,VALID,0,VALID,18.6188,VALID,106,VALID,1.11482,
2003-05-22, 00:47:00,VALID,919.294,VALID,0,VALID,99.7587,VALID,0,VALID,18.6128,VALID,101,VALID,0.840372,
2003-05-22, 00:48:00,VALID,919.288,VALID,0,VALID,99.7523,VALID,0.0339617,VALID,18.5964,VALID,101,VALID,1.29132,
2003-05-22, 00:49:00,VALID,919.29,VALID,0,VALID,99.7637,VALID,0,VALID,18.5673,VALID,98,VALID,1.103,
2003-05-22, 00:50:00,VALID,919.297,VALID,0,VALID,99.7714,VALID,0.0169808,VALID,18.5313,VALID,111,VALID,1.04707,
2003-05-22, 00:51:00,VALID,919.287,VALID,0,VALID,99.7866,VALID,-0.0169808,VALID,18.5253,VALID,98,VALID,1.13396,
2003-05-22, 00:52:00,VALID,919.294,VALID,0,VALID,99.8044,VALID,0.0509425,VALID,18.5251,VALID,106,VALID,1.1856,
2003-05-22, 00:53:00,VALID,919.299,VALID,0,VALID,99.8375,VALID,0.0509425,VALID,18.5184,VALID,112,VALID,1.28638,
2003-05-22, 00:54:00,VALID,919.296,VALID,0,VALID,99.8477,VALID,0.0679233,VALID,18.5184,VALID,109,VALID,1.43919,
2003-05-22, 00:55:00,VALID,919.288,VALID,0,VALID,99.868,VALID,0.0169808,VALID,18.5283,VALID,110,VALID,1.4192,
2003-05-22, 00:56:00,VALID,919.277,VALID,0,VALID,99.8744,VALID,0,VALID,18.5258,VALID,116,VALID,1.29893,
2003-05-22, 00:57:00,VALID,919.27,VALID,0,VALID,99.8896,VALID,0,VALID,18.5355,VALID,123,VALID,1.25495,
2003-05-22, 00:58:00,VALID,919.253,VALID,0,VALID,99.9011,VALID,0.0509425,VALID,18.5318,VALID,117,VALID,1.0926,
2003-05-22, 00:59:00,VALID,919.242,VALID,0,VALID,99.8998,VALID,0,VALID,18.5193,VALID,132,VALID,0.931799,
2003-05-22, 01:00:00,VALID,919.219,VALID,0,VALID,99.9151,VALID,0,VALID,18.5288,VALID,112,VALID,0.910985,
2003-05-22, 01:01:00,VALID,919.219,VALID,0,VALID,99.9189,VALID,-0.0169808,VALID,18.532,VALID,112,VALID,0.738809,
2003-05-22, 01:02:00,VALID,919.209,VALID,0,VALID,99.9354,VALID,0,VALID,18.5318,VALID,111,VALID,1.07196,
2003-05-22, 01:03:00,VALID,919.198,VALID,0,VALID,99.9443,VALID,0,VALID,18.5454,VALID,116,VALID,0.860609,
2003-05-22, 01:04:00,VALID,919.178,VALID,0,VALID,99.9341,VALID,0,VALID,18.539,VALID,107,VALID,1.48933,
2003-05-22, 01:05:00,VALID,919.171,VALID,0,VALID,99.943,VALID,0,VALID,18.532,VALID,110,VALID,1.42578,
2003-05-22, 01:06:00,VALID,919.143,VALID,0,VALID,99.9481,VALID,0.0169808,VALID,18.532,VALID,107,VALID,1.37373,
2003-05-22, 01:07:00,VALID,919.134,VALID,0,VALID,99.9494,VALID,0.0169808,VALID,18.526,VALID,102,VALID,1.07056,
2003-05-22, 01:08:00,VALID,919.117,VALID,0,VALID,99.9519,VALID,0,VALID,18.4997,VALID,104,VALID,1.26246,
2003-05-22, 01:09:00,VALID,919.092,VALID,0,VALID,99.9507,VALID,0.0169808,VALID,18.4965,VALID,113,VALID,1.36575,
2003-05-22, 01:10:00,VALID,919.074,VALID,0,VALID,99.9494,VALID,0.0339617,VALID,18.4896,VALID,99,VALID,1.07011,
2003-05-22, 01:11:00,VALID,919.047,VALID,0,VALID,99.9634,VALID,0.101885,VALID,18.4824,VALID,104,VALID,1.2056,
2003-05-22, 01:12:00,VALID,919.019,VALID,0,VALID,99.9545,VALID,0.0849042,VALID,18.4663,VALID,106,VALID,1.04343,
2003-05-22, 01:13:00,VALID,918.985,VALID,0,VALID,99.957,VALID,0.0509425,VALID,18.4404,VALID,111,VALID,1.11275,
2003-05-22, 01:14:00,VALID,918.957,VALID,0,VALID,99.9583,VALID,0.0679233,VALID,18.4277,VALID,109,VALID,1.08002,
2003-05-22, 01:15:00,VALID,918.93,VALID,0,VALID,99.9557,VALID,0.0679233,VALID,18.4146,VALID,102,VALID,1.06187,
2003-05-22, 01:16:00,VALID,918.901,VALID,0,VALID,99.9697,VALID,0.0509425,VALID,18.4088,VALID,113,VALID,1.28557,
2003-05-22, 01:17:00,VALID,918.909,VALID,0,VALID,99.9685,VALID,0.0849042,VALID,18.3956,VALID,105,VALID,1.20539,
2003-05-22, 01:18:00,VALID,918.908,VALID,0,VALID,99.9761,VALID,0.101885,VALID,18.4016,VALID,76,VALID,0.852325,
2003-05-22, 01:19:00,VALID,918.905,VALID,0,VALID,99.9886,VALID,0.118866,VALID,18.3885,VALID,85,VALID,0.873621,
2003-05-22, 01:20:00,VALID,918.922,VALID,0,VALID,99.9886,VALID,0.0849042,VALID,18.3885,VALID,110,VALID,1.45503,
2003-05-22, 01:21:00,VALID,918.911,VALID,0,VALID,99.999,VALID,0.0509425,VALID,18.3924,VALID,102,VALID,1.21265,
2003-05-22, 01:22:00,VALID,918.895,VALID,0,VALID,99.999,VALID,0.0849042,VALID,18.4023,VALID,106,VALID,1.08235,
2003-05-22, 01:23:00,VALID,918.88,VALID,0,VALID,99.999,VALID,0.0509425,VALID,18.3857,VALID,110,VALID,0.971628,
2003-05-22, 01:24:00,VALID,918.852,VALID,0,VALID,99.9952,VALID,0.0679233,VALID,18.3666,VALID,127,VALID,0.503289,
2003-05-22, 01:25:00,VALID,918.817,VALID,0,VALID,99.9921,VALID,0.0509425,VALID,18.3246,VALID,101,VALID,0.537729,
2003-05-22, 01:26:00,VALID,918.799,VALID,0,VALID,99.9954,VALID,0.0339617,VALID,18.3181,VALID,94,VALID,0.62523,
2003-05-22, 01:27:00,VALID,918.785,VALID,0,VALID,99.999,VALID,0.0849042,VALID,18.3052,VALID,116,VALID,0.822213,
2003-05-22, 01:28:00,VALID,918.772,VALID,0,VALID,99.999,VALID,0.0509425,VALID,18.2983,VALID,111,VALID,0.935843,
2003-05-22, 01:29:00,VALID,918.764,VALID,0,VALID,100,VALID,0.0849042,VALID,18.3017,VALID,109,VALID,0.947635,
2003-05-22, 01:30:00,VALID,918.749,VALID,0,VALID,100,VALID,0.0849042,VALID,18.2921,VALID,111,VALID,0.826686,
2003-05-22, 01:31:00,VALID,918.731,VALID,0,VALID,100,VALID,0.0849042,VALID,18.26,VALID,114,VALID,0.836349,
2003-05-22, 01:32:00,VALID,918.718,VALID,0,VALID,100,VALID,0.0849042,VALID,18.2406,VALID,110,VALID,0.65263,
2003-05-22, 01:33:00,VALID,918.715,VALID,0,VALID,100,VALID,0.0679233,VALID,18.2307,VALID,113,VALID,0.73989,
2003-05-22, 01:34:00,VALID,918.704,VALID,0,VALID,100,VALID,0.0679233,VALID,18.2148,VALID,132,VALID,0.584037,
2003-05-22, 01:35:00,VALID,918.694,VALID,0,VALID,100,VALID,0.0339617,VALID,18.212,VALID,111,VALID,0.499023,
2003-05-22, 01:36:00,VALID,918.686,VALID,0,VALID,100,VALID,0.0509425,VALID,18.1956,VALID,116,VALID,0.702914,
2003-05-22, 01:37:00,VALID,918.682,VALID,0,VALID,100,VALID,0.0509425,VALID,18.1954,VALID,122,VALID,0.637952,
2003-05-22, 01:38:00,VALID,918.694,VALID,0,VALID,100,VALID,0.0679233,VALID,18.1822,VALID,118,VALID,0.891242,
2003-05-22, 01:39:00,VALID,918.694,VALID,0,VALID,100,VALID,0.0849042,VALID,18.1825,VALID,119,VALID,0.884718,
2003-05-22, 01:40:00,VALID,918.695,VALID,0,VALID,100,VALID,0.0849042,VALID,18.176,VALID,131,VALID,0.566636,
2003-05-22, 01:41:00,VALID,918.692,VALID,0,VALID,100,VALID,0.0509425,VALID,18.1926,VALID,130,VALID,0.611486,
2003-05-22, 01:42:00,VALID,918.693,VALID,0,VALID,100,VALID,0.0509425,VALID,18.1665,VALID,118,VALID,0.890152,
2003-05-22, 01:43:00,VALID,918.68,VALID,0,VALID,100,VALID,0.0339617,VALID,18.1732,VALID,105,VALID,1.05511,
2003-05-22, 01:44:00,VALID,918.664,VALID,0,VALID,100,VALID,0,VALID,18.1834,VALID,105,VALID,1.25206,
2003-05-22, 01:45:00,VALID,918.648,VALID,0,VALID,100,VALID,0.0169808,VALID,18.1898,VALID,99,VALID,0.916324,
2003-05-22, 01:46:00,VALID,918.623,VALID,0,VALID,100,VALID,0.0339617,VALID,18.1635,VALID,90,VALID,0.833841,
2003-05-22, 01:47:00,VALID,918.624,VALID,0,VALID,100,VALID,0.0169808,VALID,18.1476,VALID,124,VALID,0.703355,
2003-05-22, 01:48:00,VALID,918.603,VALID,0,VALID,100,VALID,0.0169808,VALID,18.1446,VALID,112,VALID,0.666174,
2003-05-22, 01:49:00,VALID,918.57,VALID,0,VALID,100,VALID,0.0509425,VALID,18.1312,VALID,115,VALID,0.990967,
2003-05-22, 01:50:00,VALID,918.55,VALID,0,VALID,100,VALID,0.0169808,VALID,18.1315,VALID,118,VALID,0.850084,
2003-05-22, 01:51:00,VALID,918.512,VALID,0,VALID,100,VALID,0.0339617,VALID,18.1248,VALID,121,VALID,0.644531,
2003-05-22, 01:52:00,VALID,918.483,VALID,0,VALID,100,VALID,0.0509425,VALID,18.122,VALID,117,VALID,0.83676,
2003-05-22, 01:53:00,VALID,918.458,VALID,0,VALID,100,VALID,0.0339617,VALID,18.1248,VALID,74,VALID,0.524009,
2003-05-22, 01:54:00,VALID,918.427,VALID,0,VALID,100,VALID,0.0339617,VALID,18.1215,VALID,102,VALID,1.21852,
2003-05-22, 01:55:00,VALID,918.406,VALID,0,VALID,100,VALID,0.0339617,VALID,18.1347,VALID,107,VALID,0.436867,
2003-05-22, 01:56:00,VALID,918.376,VALID,0,VALID,100,VALID,-0.0169808,VALID,18.1285,VALID,106,VALID,0.701941,
2003-05-22, 01:57:00,VALID,918.348,VALID,0,VALID,100,VALID,0.0169808,VALID,18.1481,VALID,98,VALID,1.02386,
2003-05-22, 01:58:00,VALID,918.321,VALID,0,VALID,100,VALID,-0.0169808,VALID,18.1315,VALID,113,VALID,1.25678,
2003-05-22, 01:59:00,VALID,918.315,VALID,0,VALID,100,VALID,0.0339617,VALID,18.1086,VALID,115,VALID,1.20292,
2003-05-22, 02:00:00,VALID,918.308,VALID,0,VALID,100,VALID,-0.0339617,VALID,18.1121,VALID,116,VALID,1.00781,
2003-05-22, 02:01:00,VALID,918.306,VALID,0,VALID,100,VALID,-0.0169808,VALID,18.1155,VALID,109,VALID,0.9892,
2003-05-22, 02:02:00,VALID,918.305,VALID,0,VALID,100,VALID,0,VALID,18.1058,VALID,118,VALID,0.998944,
2003-05-22, 02:03:00,VALID,918.296,VALID,0,VALID,100,VALID,0.0339617,VALID,18.1056,VALID,120,VALID,1.09229,
2003-05-22, 02:04:00,VALID,918.291,VALID,0,VALID,100,VALID,0.0169808,VALID,18.1121,VALID,113,VALID,1.32813,
2003-05-22, 02:05:00,VALID,918.281,VALID,0,VALID,100,VALID,0.0169808,VALID,18.1158,VALID,109,VALID,1.12603,
2003-05-22, 02:06:00,VALID,918.282,VALID,0,VALID,100,VALID,0.0509425,VALID,18.0959,VALID,107,VALID,0.956826,
2003-05-22, 02:07:00,VALID,918.269,VALID,0,VALID,100,VALID,0.0679233,VALID,18.0701,VALID,104,VALID,1.02134,
2003-05-22, 02:08:00,VALID,918.262,VALID,0,VALID,100,VALID,0.0339617,VALID,18.0669,VALID,101,VALID,0.869945,
2003-05-22, 02:09:00,VALID,918.241,VALID,0,VALID,100,VALID,0.0339617,VALID,18.0544,VALID,114,VALID,1.1003,
2003-05-22, 02:10:00,VALID,918.227,VALID,0,VALID,100,VALID,0,VALID,18.0311,VALID,105,VALID,1.09706,
2003-05-22, 02:11:00,VALID,918.219,VALID,0,VALID,100,VALID,-0.0169808,VALID,18.0216,VALID,113,VALID,0.830448,
2003-05-22, 02:12:00,VALID,918.213,VALID,0,VALID,100,VALID,0,VALID,18.0193,VALID,114,VALID,1.1912,
2003-05-22, 02:13:00,VALID,918.196,VALID,0,VALID,100,VALID,0.0339617,VALID,17.9962,VALID,117,VALID,0.909539,
2003-05-22, 02:14:00,VALID,918.175,VALID,0,VALID,100,VALID,-0.0169808,VALID,18.0027,VALID,103,VALID,1.56402,
2003-05-22, 02:15:00,VALID,918.158,VALID,0,VALID,100,VALID,-0.0169808,VALID,18.0023,VALID,118,VALID,0.998851,
2003-05-22, 02:16:00,VALID,918.157,VALID,0,VALID,100,VALID,0.0509425,VALID,18.0055,VALID,95,VALID,1.5,
2003-05-22, 02:17:00,VALID,918.146,VALID,0,VALID,100,VALID,0.0339617,VALID,18.0057,VALID,88,VALID,1.56445,
2003-05-22, 02:18:00,VALID,918.132,VALID,0,VALID,100,VALID,0,VALID,17.9962,VALID,83,VALID,0.822424,
2003-05-22, 02:19:00,VALID,918.135,VALID,0,VALID,100,VALID,0.0169808,VALID,17.9833,VALID,93,VALID,1.44367,
2003-05-22, 02:20:00,VALID,918.117,VALID,0,VALID,100,VALID,0.0339617,VALID,17.9799,VALID,88,VALID,1.40193,
2003-05-22, 02:21:00,VALID,918.1,VALID,0,VALID,100,VALID,0.0339617,VALID,17.9605,VALID,79,VALID,1.24038,
2003-05-22, 02:22:00,VALID,918.073,VALID,0,VALID,100,VALID,0.0169808,VALID,17.9506,VALID,69,VALID,1.03194,
2003-05-22, 02:23:00,VALID,918.076,VALID,0,VALID,100,VALID,0.0169808,VALID,17.9319,VALID,95,VALID,1.2481,
2003-05-22, 02:24:00,VALID,918.06,VALID,0,VALID,100,VALID,0,VALID,17.9153,VALID,77,VALID,1.22183,
2003-05-22, 02:25:00,VALID,918.042,VALID,0,VALID,100,VALID,0,VALID,17.8952,VALID,91,VALID,1.56567,
2003-05-22, 02:26:00,VALID,918.027,VALID,0,VALID,100,VALID,0.0169808,VALID,17.8927,VALID,88,VALID,1.03701,
2003-05-22, 02:27:00,VALID,918.01,VALID,0,VALID,100,VALID,0.0169808,VALID,17.8733,VALID,73,VALID,0.992804,
2003-05-22, 02:28:00,VALID,917.994,VALID,0,VALID,100,VALID,0.0339617,VALID,17.85,VALID,95,VALID,1.23133,
2003-05-22, 02:29:00,VALID,917.965,VALID,0,VALID,100,VALID,0.0679233,VALID,17.8507,VALID,97,VALID,1.50069,
2003-05-22, 02:30:00,VALID,917.946,VALID,0,VALID,100,VALID,0.0339617,VALID,17.8701,VALID,102,VALID,1.18011,
2003-05-22, 02:31:00,VALID,917.915,VALID,0,VALID,100,VALID,0,VALID,17.8507,VALID,77,VALID,1.19165,
2003-05-22, 02:32:00,VALID,917.905,VALID,0,VALID,100,VALID,0.0169808,VALID,17.8414,VALID,93,VALID,0.97234,
2003-05-22, 02:33:00,VALID,917.906,VALID,0,VALID,100,VALID,0.0509425,VALID,17.841,VALID,94,VALID,1.1178,
2003-05-22, 02:34:00,VALID,917.9,VALID,0,VALID,100,VALID,0.0509425,VALID,17.8251,VALID,94,VALID,1.16982,
2003-05-22, 02:35:00,VALID,917.906,VALID,0,VALID,100,VALID,0.0339617,VALID,17.8121,VALID,87,VALID,1.15587,
2003-05-22, 02:36:00,VALID,917.914,VALID,0,VALID,100,VALID,0,VALID,17.7925,VALID,97,VALID,1.15395,
2003-05-22, 02:37:00,VALID,917.931,VALID,0,VALID,100,VALID,0.0169808,VALID,17.7858,VALID,94,VALID,1.40139,
2003-05-22, 02:38:00,VALID,917.925,VALID,0,VALID,100,VALID,0,VALID,17.7764,VALID,93,VALID,0.733191,
2003-05-22, 02:39:00,VALID,917.938,VALID,0,VALID,100,VALID,0.0679233,VALID,17.7542,VALID,106,VALID,0.903927,
2003-05-22, 02:40:00,VALID,917.928,VALID,0,VALID,100,VALID,-0.0169808,VALID,17.7443,VALID,102,VALID,0.995683,
2003-05-22, 02:41:00,VALID,917.937,VALID,0,VALID,100,VALID,0.0339617,VALID,17.7191,VALID,94,VALID,0.75884,
2003-05-22, 02:42:00,VALID,917.929,VALID,0,VALID,100,VALID,0,VALID,17.7028,VALID,85,VALID,0.661395,
2003-05-22, 02:43:00,VALID,917.925,VALID,0,VALID,100,VALID,0,VALID,17.6995,VALID,110,VALID,0.805147,
2003-05-22, 02:44:00,VALID,917.928,VALID,0,VALID,100,VALID,-0.0169808,VALID,17.6769,VALID,77,VALID,0.484164,
2003-05-22, 02:45:00,VALID,917.922,VALID,0,VALID,100,VALID,-0.0169808,VALID,17.661,VALID,93,VALID,0.509521,
2003-05-22, 02:46:00,VALID,917.915,VALID,0,VALID,100,VALID,0.0169808,VALID,17.6578,VALID,111,VALID,0.454814,
2003-05-22, 02:47:00,VALID,917.901,VALID,0,VALID,100,VALID,0,VALID,17.6416,VALID,72,VALID,0.960321,
2003-05-22, 02:48:00,VALID,917.881,VALID,0,VALID,100,VALID,0,VALID,17.6451,VALID,106,VALID,1.00946,
2003-05-22, 02:49:00,VALID,917.87,VALID,0,VALID,100,VALID,-0.0169808,VALID,17.6483,VALID,92,VALID,0.713415,
2003-05-22, 02:50:00,VALID,917.871,VALID,0,VALID,100,VALID,0.0339617,VALID,17.6421,VALID,105,VALID,0.685662,
2003-05-22, 02:51:00,VALID,917.865,VALID,0,VALID,100,VALID,0.0169808,VALID,17.6319,VALID,78,VALID,0.881123,
2003-05-22, 02:52:00,VALID,917.852,VALID,0,VALID,100,VALID,0.0169808,VALID,17.6061,VALID,94,VALID,0.989583,
2003-05-22, 02:53:00,VALID,917.841,VALID,0,VALID,100,VALID,-0.0169808,VALID,17.6029,VALID,106,VALID,1.63535,
2003-05-22, 02:54:00,VALID,917.846,VALID,0,VALID,100,VALID,0,VALID,17.5964,VALID,94,VALID,1.25596,
2003-05-22, 02:55:00,VALID,917.841,VALID,0,VALID,100,VALID,-0.0169808,VALID,17.596,VALID,89,VALID,1.14967,
2003-05-22, 02:56:00,VALID,917.844,VALID,0,VALID,100,VALID,0.101885,VALID,17.5925,VALID,107,VALID,1.57088,
2003-05-22, 02:57:00,VALID,917.84,VALID,0,VALID,100,VALID,0.118866,VALID,17.5761,VALID,127,VALID,1.40832,
2003-05-22, 02:58:00,VALID,917.837,VALID,0,VALID,100,VALID,0.101885,VALID,17.569,VALID,110,VALID,0.950169,
2003-05-22, 02:59:00,VALID,917.838,VALID,0,VALID,100,VALID,0.118866,VALID,17.5822,VALID,106,VALID,1.64526,
2003-05-22, 03:00:00,VALID,917.824,VALID,0,VALID,100,VALID,0.0849042,VALID,17.5828,VALID,110,VALID,1.1307,
2003-05-22, 03:01:00,VALID,917.831,VALID,0,VALID,100,VALID,0.101885,VALID,17.5406,VALID,129,VALID,1.34663,
2003-05-22, 03:02:00,VALID,917.829,VALID,0,VALID,100,VALID,0.0849042,VALID,17.5436,VALID,94,VALID,1.01069,
2003-05-22, 03:03:00,VALID,917.811,VALID,0,VALID,100,VALID,0.0849042,VALID,17.5339,VALID,129,VALID,1.44245,
2003-05-22, 03:04:00,VALID,917.799,VALID,0,VALID,100,VALID,0.101885,VALID,17.5245,VALID,123,VALID,0.735983,
2003-05-22, 03:05:00,VALID,917.785,VALID,0,VALID,100,VALID,0.101885,VALID,17.5046,VALID,126,VALID,1.11761,
2003-05-22, 03:06:00,VALID,917.786,VALID,0,VALID,100,VALID,0.0509425,VALID,17.4795,VALID,119,VALID,0.623343,
2003-05-22, 03:07:00,VALID,917.786,VALID,0,VALID,100,VALID,-0.0339617,VALID,17.484,VALID,125,VALID,0.914485,
2003-05-22, 03:08:00,VALID,917.792,VALID,0,VALID,100,VALID,-0.0339617,VALID,17.4776,VALID,130,VALID,1.26398,
2003-05-22, 03:09:00,VALID,917.79,VALID,0,VALID,100,VALID,0,VALID,17.4547,VALID,121,VALID,1.0366,
2003-05-22, 03:10:00,VALID,917.806,VALID,0,VALID,100,VALID,0.0679233,VALID,17.4478,VALID,124,VALID,1.57736,
2003-05-22, 03:11:00,VALID,917.794,VALID,0,VALID,100,VALID,0.0509425,VALID,17.4207,VALID,110,VALID,1.10938,
2003-05-22, 03:12:00,VALID,917.796,VALID,0,VALID,100,VALID,0.0849042,VALID,17.4149,VALID,116,VALID,1.12859,
2003-05-22, 03:13:00,VALID,917.791,VALID,0,VALID,100,VALID,0.0679233,VALID,17.3856,VALID,90,VALID,0.560059,
2003-05-22, 03:14:00,VALID,917.797,VALID,0,VALID,100,VALID,0.0849042,VALID,17.3727,VALID,130,VALID,0.870777,
2003-05-22, 03:15:00,VALID,917.796,VALID,0,VALID,100,VALID,0.0679233,VALID,17.3533,VALID,96,VALID,0.820724,
2003-05-22, 03:16:00,VALID,917.788,VALID,0,VALID,100,VALID,0.0849042,VALID,17.3307,VALID,109,VALID,0.893503,
2003-05-22, 03:17:00,VALID,917.788,VALID,0,VALID,100,VALID,0.0679233,VALID,17.318,VALID,104,VALID,1.15244,
2003-05-22, 03:18:00,VALID,917.792,VALID,0,VALID,100,VALID,0.0849042,VALID,17.3111,VALID,83,VALID,1.25988,
2003-05-22, 03:19:00,VALID,917.781,VALID,0,VALID,100,VALID,0.0679233,VALID,17.276,VALID,103,VALID,0.767525,
2003-05-22, 03:20:00,VALID,917.781,VALID,0,VALID,100,VALID,0.101885,VALID,17.276,VALID,107,VALID,0.831439,
2003-05-22, 03:21:00,VALID,917.777,VALID,0,VALID,100,VALID,0.101885,VALID,17.27,VALID,130,VALID,0.936022,
2003-05-22, 03:22:00,VALID,917.766,VALID,0,VALID,100,VALID,0.0509425,VALID,17.2728,VALID,120,VALID,1.20415,
2003-05-22, 03:23:00,VALID,917.783,VALID,0,VALID,100,VALID,0.0509425,VALID,17.2894,VALID,104,VALID,0.94778,
2003-05-22, 03:24:00,VALID,917.783,VALID,0,VALID,100,VALID,0.0339617,VALID,17.2924,VALID,99,VALID,0.943216,
2003-05-22, 03:25:00,VALID,917.793,VALID,0,VALID,100,VALID,0.0679233,VALID,17.2762,VALID,102,VALID,0.764246,
2003-05-22, 03:26:00,VALID,917.798,VALID,0,VALID,100,VALID,0.0679233,VALID,17.2605,VALID,87,VALID,0.695313,
2003-05-22, 03:27:00,VALID,917.795,VALID,0,VALID,100,VALID,0.0339617,VALID,17.2351,VALID,85,VALID,0.791748,
2003-05-22, 03:28:00,VALID,917.807,VALID,0,VALID,100,VALID,0.0339617,VALID,17.2032,VALID,104,VALID,0.625,
2003-05-22, 03:29:00,VALID,917.809,VALID,0,VALID,100,VALID,0.0509425,VALID,17.1578,VALID,88,VALID,0.550987,
2003-05-22, 03:30:00,VALID,917.81,VALID,0,VALID,100,VALID,0,VALID,17.1255,VALID,95,VALID,0.724301,
2003-05-22, 03:31:00,VALID,917.81,VALID,0,VALID,100,VALID,0.0509425,VALID,17.0866,VALID,89,VALID,0.880526,
2003-05-22, 03:32:00,VALID,917.81,VALID,0,VALID,100,VALID,0.0169808,VALID,17.0642,VALID,94,VALID,0.911765,
2003-05-22, 03:33:00,VALID,917.808,VALID,0,VALID,100,VALID,0,VALID,17.0278,VALID,101,VALID,0.555743,
2003-05-22, 03:34:00,VALID,917.809,VALID,0,VALID,100,VALID,0.0169808,VALID,17.0381,VALID,109,VALID,0.954072,
2003-05-22, 03:35:00,VALID,917.818,VALID,0,VALID,100,VALID,0.0339617,VALID,17.0123,VALID,109,VALID,0.807221,
2003-05-22, 03:36:00,VALID,917.817,VALID,0,VALID,100,VALID,0.0339617,VALID,16.9735,VALID,86,VALID,0.460526,
2003-05-22, 03:37:00,VALID,917.826,VALID,0,VALID,100,VALID,0.0849042,VALID,16.9343,VALID,96,VALID,1.00555,
2003-05-22, 03:38:00,VALID,917.826,VALID,0,VALID,100,VALID,0.0509425,VALID,16.9251,VALID,128,VALID,0.653011,
2003-05-22, 03:39:00,VALID,917.845,VALID,0,VALID,100,VALID,0.0169808,VALID,16.896,VALID,82,VALID,0.292509,